[[{"header":{"parameterUnit":"m.s-1","parameterCategory":1,"la1":30.2991,"la2":30.254,"lo1":-89.0895,"lo2":-89.0444,"dy":0.0017,"dx":0.0017,"nx":28,"ny":28,"refTime":"2025-04-18T03:00:00:Z","depth":0,"parameterNumber":2,"parameterNumberName":"U-component_of_WINDS"},"data":[0,0,0,0,0,0,0,0,0,0,0,0,0,0,0,0,0,0,0,0,0,0,0,0,0,0,0,0,0,0,0,0,0,0,0,0,0,0,0,0,0,0,0,0,0,0,0,0,0,0,0,0,0,0,0,0,0,0,-5.0748,-5.0749,0,-5.078,-5.078,-5.078,-5.0737,-5.0736,-5.0734,-5.0733,-5.0761,-5.0763,-5.0765,0,0,0,0,0,0,0,0,0,0,0,0,0,-5.0649,-5.0651,-5.0748,-5.0749,-5.0749,-5.0779,-5.078,-5.078,-5.0738,-5.0736,-5.0734,-5.0732,-5.076,-5.0763,-5.0765,0,0,0,0,0,0,0,0,0,0,0,0,0,-5.0687,-5.0652,-5.0748,-5.0732,-5.073,-5.0779,-5.078,-5.078,-5.0738,-5.0736,-5.0733,-5.0731,-5.0759,-5.0763,-5.0766,-5.0831,0,0,-5.0776,-5.0777,0,0,0,0,0,0,0,0,-5.0685,-5.0691,-5.0734,-5.0733,-5.0732,-5.0752,-5.0755,-5.0797,-5.0738,-5.0735,-5.0733,-5.073,-5.076,-5.0763,-5.0773,-5.0833,-5.0834,-5.0776,-5.0778,-5.0779,-5.078,0,0,0,0,0,0,0,-5.0683,-5.0689,-5.0761,-5.0734,-5.0733,-5.0722,-5.0725,-5.0763,-5.076,-5.0735,-5.0732,-5.0737,-5.0759,-5.077,-5.0774,-5.0834,-5.0776,-5.0779,-5.0781,-5.0782,-5.0949,-5.0951,0,0,0,0,0,0,-5.0683,-5.0688,-5.076,-5.0761,-5.0703,-5.0725,-5.0729,-5.0748,-5.0759,-5.0759,-5.0738,-5.0734,-5.0766,-5.077,-5.0775,-5.0851,-5.0779,-5.0782,-5.0784,-5.0946,-5.0949,-5.0952,0,0,0,0,0,0,-5.0681,-5.0689,-5.0758,-5.0724,-5.0732,-5.0729,-5.0751,-5.075,-5.0761,-5.0762,-5.0761,-5.0751,-5.0764,-5.077,-5.0818,-5.0851,-5.0784,-5.0787,-5.0943,-5.0947,-5.095,-5.1005,0,0,0,0,0,0,-5.0678,-5.0689,-5.0714,-5.0725,-5.0734,-5.0802,-5.0754,-5.0752,-5.0768,-5.0763,-5.0773,-5.0773,-5.0763,-5.0813,-5.0821,-5.0855,-5.0789,-5.094,-5.0945,-5.0949,-5.1,-5.101,-5.1019,0,0,0,0,0,-5.0675,-5.0728,-5.0716,-5.0725,-5.0766,-5.0804,-5.0809,-5.0797,-5.0771,-5.0795,-5.0796,-5.0773,-5.0847,-5.0818,-5.0827,-5.0862,-5.0938,-5.0944,-5.0949,-5.0996,-5.1008,-5.1018,0,0,0,0,0,0,-5.0719,-5.0729,-5.0715,-5.0774,-5.0789,-5.0796,-5.0827,-5.0811,-5.0832,-5.0826,-5.081,-5.0813,-5.0864,-5.0868,-5.0836,-5.0926,-5.0888,-5.0895,-5.0921,-5.0932,-5.0941,-5.0938,-5.0792,0,0,0,0,0,-5.0737,-5.0768,-5.0774,-5.0825,-5.0833,-5.083,-5.0846,-5.0836,-5.085,-5.0855,-5.0859,-5.0873,-5.0899,-5.0916,-5.0941,-5.1002,-5.1002,-5.103,-5.104,-5.1047,-5.1053,-5.1084,-5.1096,-5.097,-5.097,-5.097,0,0,-5.0771,-5.078,-5.0801,-5.0834,-5.0844,-5.0876,-5.0835,-5.087,-5.0892,-5.086,-5.0905,-5.0909,-5.0923,-5.0977,-5.1001,-5.0982,-5.1088,-5.1054,-5.106,-5.1062,-5.1091,-5.1103,-5.1113,-5.0974,-5.0973,-5.0973,0,0,-5.085,-5.0861,-5.0904,-5.0916,-5.0932,-5.093,-5.0941,-5.0952,-5.0953,-5.0999,-5.0975,-5.1002,-5.1048,-5.1059,-5.107,-5.1156,-5.1134,-5.1164,-5.1211,-5.1242,-5.1252,-5.126,-5.1289,-5.1299,-5.1171,-5.1171,-5.1171,0,-5.089,-5.0938,-5.0928,-5.0965,-5.098,-5.0955,-5.0997,-5.1009,-5.1032,-5.1042,-5.1022,-5.1079,-5.1087,-5.1143,-5.1164,-5.1175,-5.1185,-5.1161,-5.1252,-5.126,-5.1268,-5.1295,-5.1306,-5.1174,-5.1174,-5.1173,-5.1173,0,-5.0986,-5.1019,-5.1052,-5.1077,-5.1096,-5.1136,-5.1131,-5.1151,-5.1141,-5.114,-5.1187,-5.1196,-5.1221,-5.1235,-5.1224,-5.1289,-5.1277,-5.1254,-5.1215,-5.1283,-5.1308,-5.1319,-5.1179,-5.1178,-5.1177,-5.1176,0,0,-5.109,-5.1111,-5.1122,-5.1133,-5.1151,-5.1176,-5.1215,-5.1241,-5.1258,-5.1276,-5.1307,-5.1348,-5.1327,-5.1341,-5.1332,-5.1359,-5.1424,-5.1333,-5.1333,-5.1347,-5.1494,-5.1509,-5.1521,-5.1412,-5.1414,-5.1415,-5.1492,0,-5.1167,-5.1235,-5.1228,-5.1292,-5.1322,-5.13,-5.1333,-5.1347,-5.1349,-5.1374,-5.1375,-5.1403,-5.1375,-5.1383,-5.141,-5.1411,-5.1453,-5.1405,-5.1438,-5.1439,-5.1432,-5.1534,-5.1549,-5.1621,-5.1502,-5.1504,-5.1505,0,-5.1265,-5.1287,-5.1355,-5.1368,-5.138,-5.1411,-5.1434,-5.146,-5.1475,-5.1474,-5.149,-5.1477,-5.1515,-5.1478,-5.1529,-5.1497,-5.1511,-5.1514,-5.1516,-5.1516,-5.1474,-5.1534,-5.1644,-5.1654,-5.152,-5.1519,-5.1518,0,-5.1331,-5.1379,-5.1425,-5.1435,-5.1453,-5.1474,-5.1482,-5.1496,-5.1512,-5.1533,-5.1543,-5.1568,-5.1581,-5.16,-5.1594,-5.1568,-5.1646,-5.1609,-5.1644,-5.1644,-5.1658,-5.1657,-5.1769,-5.1673,-5.1673,-5.1672,-5.1672,0,-5.1416,-5.1457,-5.1455,-5.1483,-5.1529,-5.1521,-5.1566,-5.1571,-5.1584,-5.1611,-5.1595,-5.1621,-5.1612,-5.1638,-5.1633,-5.1675,-5.1682,-5.1681,-5.1678,-5.168,-5.168,-5.1686,-5.168,-5.1675,-5.1675,-5.1674,-5.1673,0,-5.1496,-5.1496,-5.1545,-5.1558,-5.1563,-5.1596,-5.1606,-5.1632,-5.1634,-5.1669,-5.1677,-5.1678,-5.1708,-5.1704,-5.1737,-5.1734,-5.1785,-5.1779,-5.178,-5.1777,-5.1812,-5.1808,-5.193,-5.1944,-5.1841,-5.1842,-5.1843,0,-5.1548,-5.158,-5.1597,-5.1615,-5.1625,-5.1655,-5.1672,-5.1666,-5.1685,-5.1706,-5.1729,-5.1757,-5.1779,-5.1827,-5.183,-5.1855,-5.1847,-5.1888,-5.185,-5.1851,-5.1844,-5.1841,-5.1843,-5.1894,-5.1895,-5.1896,-5.1897,0,-5.164,-5.1639,-5.1665,-5.1692,-5.1713,-5.1734,-5.1752,-5.1768,-5.1764,-5.1785,-5.1816,-5.1833,-5.1868,-5.1895,-5.1919,-5.1926,-5.191,-5.191,-5.1918,-5.1919,-5.1918,-5.1916,-5.1797,-5.1906,-5.1905,-5.1904,-5.1904,-5.1903,-5.1706,-5.1733,-5.175,-5.1779,-5.1793,-5.1811,-5.1836,-5.1841,-5.1867,-5.1895,-5.189,-5.1924,-5.1939,-5.197,-5.198,-5.2006,-5.199,-5.2004,-5.2007,-5.201,-5.2012,-5.1917,-5.201,-5.201,-5.201,-5.201,-5.201,0,-5.1795,-5.1805,-5.1833,-5.186,-5.1883,-5.187,-5.189,-5.1909,-5.194,-5.1956,-5.1979,-5.2014,-5.2041,-5.2047,-5.2073,-5.2092,-5.2086,-5.2099,-5.2096,-5.2097,-5.2026,-5.2014,-5.2104,-5.2104,-5.2104,-5.2104,-5.2104,-5.2104,-5.1844,-5.1888,-5.1889,-5.194,-5.195,-5.1984,-5.1996,-5.2013,-5.2025,-5.2066,-5.2089,-5.2094,-5.2105,-5.2132,-5.2156,-5.2157,-5.2166,-5.2182,-5.218,-5.2112,-5.2103,-5.2093,-5.2082,-5.2185,-5.2185,-5.2249,-5.225,-5.225]},{"header":{"parameterUnit":"m.s-1","parameterCategory":1,"la1":30.2991,"la2":30.254,"lo1":-89.0895,"lo2":-89.0444,"dy":0.0017,"dx":0.0017,"nx":28,"ny":28,"refTime":"2025-04-18T03:00:00:Z","depth":0,"parameterNumber":3,"parameterNumberName":"V-component_of_WINDS"},"data":[0,0,0,0,0,0,0,0,0,0,0,0,0,0,0,0,0,0,0,0,0,0,0,0,0,0,0,0,0,0,0,0,0,0,0,0,0,0,0,0,0,0,0,0,0,0,0,0,0,0,0,0,0,0,0,0,0,0,4.5983,4.5983,0,4.6024,4.6025,4.6025,4.6047,4.6047,4.6047,4.6047,4.6085,4.6086,4.6087,0,0,0,0,0,0,0,0,0,0,0,0,0,4.592,4.5921,4.5983,4.5983,4.5984,4.6024,4.6025,4.6026,4.6047,4.6047,4.6047,4.6047,4.6085,4.6086,4.6087,0,0,0,0,0,0,0,0,0,0,0,0,0,4.5953,4.5921,4.5983,4.6,4.6002,4.6024,4.6025,4.6026,4.6047,4.6047,4.6047,4.6047,4.6084,4.6086,4.6087,4.6095,0,0,4.6092,4.6092,0,0,0,0,0,0,0,0,4.5951,4.5955,4.5997,4.5998,4.6001,4.6031,4.6017,4.6049,4.6047,4.6029,4.6047,4.6047,4.6067,4.607,4.6077,4.6097,4.6099,4.6092,4.6093,4.6093,4.6094,0,0,0,0,0,0,0,4.5949,4.5953,4.5999,4.5997,4.6,4.6004,4.6009,4.6023,4.6047,4.6031,4.6033,4.6038,4.6068,4.6076,4.6078,4.6099,4.6092,4.6093,4.6094,4.6095,4.6131,4.6131,0,0,0,0,0,0,4.5944,4.5951,4.5998,4.6,4.5976,4.6005,4.6011,4.6021,4.6047,4.6051,4.6037,4.6038,4.6073,4.6076,4.608,4.6093,4.6093,4.6095,4.6096,4.6131,4.6131,4.6131,0,0,0,0,0,0,4.5943,4.5948,4.5996,4.5976,4.5983,4.6007,4.6018,4.6022,4.603,4.6052,4.6056,4.6041,4.6073,4.6078,4.6092,4.6094,4.6095,4.6097,4.6131,4.6131,4.6131,4.6118,0,0,0,0,0,0,4.5941,4.5947,4.5951,4.5976,4.5984,4.6009,4.6018,4.6022,4.6033,4.6034,4.6057,4.606,4.6074,4.609,4.6094,4.6096,4.6098,4.613,4.6131,4.6131,4.6118,4.6117,4.6117,0,0,0,0,0,4.5938,4.5944,4.5951,4.5956,4.5989,4.6009,4.6013,4.6029,4.6033,4.6036,4.6051,4.606,4.6093,4.6091,4.6096,4.6099,4.613,4.6131,4.6131,4.6118,4.6118,4.6117,0,0,0,0,0,0,4.5915,4.5947,4.5955,4.597,4.5987,4.6012,4.6017,4.6027,4.6043,4.6043,4.6062,4.6067,4.608,4.6091,4.6088,4.6109,4.6113,4.6114,4.6102,4.6101,4.6101,4.6098,4.6099,0,0,0,0,0,4.5912,4.5927,4.5953,4.5963,4.5972,4.5993,4.6002,4.6014,4.6031,4.6038,4.6054,4.607,4.6084,4.6093,4.6107,4.612,4.6126,4.6124,4.6124,4.6123,4.6124,4.6133,4.6134,4.6131,4.6131,4.6131,0,0,4.5905,4.5925,4.5932,4.5959,4.5974,4.5988,4.5999,4.6012,4.6023,4.604,4.6056,4.6068,4.6087,4.6101,4.6108,4.611,4.6126,4.6123,4.6123,4.6124,4.6134,4.6134,4.6134,4.6131,4.6131,4.6131,0,0,4.59,4.5916,4.5927,4.5943,4.5966,4.598,4.5983,4.6008,4.6018,4.6035,4.6048,4.6061,4.6084,4.6099,4.6109,4.6113,4.6121,4.6116,4.6113,4.6122,4.6123,4.6123,4.6126,4.6127,4.6117,4.6117,4.6117,0,4.5888,4.5912,4.5931,4.5946,4.5958,4.5976,4.5988,4.6001,4.6027,4.6035,4.6037,4.607,4.6084,4.6103,4.6105,4.6111,4.6116,4.6114,4.6121,4.6122,4.6122,4.6125,4.6126,4.6116,4.6117,4.6117,4.6117,0,4.5897,4.5913,4.5919,4.5947,4.5959,4.5972,4.5994,4.6004,4.6016,4.603,4.6048,4.6066,4.6085,4.609,4.61,4.6111,4.6113,4.6118,4.6122,4.6122,4.6125,4.6126,4.6116,4.6116,4.6116,4.6116,0,0,4.5876,4.5918,4.592,4.5934,4.5962,4.5974,4.5989,4.601,4.602,4.6037,4.605,4.6071,4.6078,4.6089,4.6101,4.6109,4.6114,4.6114,4.6114,4.6114,4.6129,4.6126,4.6127,4.612,4.612,4.612,4.6128,0,4.5877,4.5905,4.5925,4.5945,4.5962,4.5981,4.5993,4.6012,4.6026,4.6041,4.6057,4.6073,4.6079,4.6086,4.6095,4.6111,4.6117,4.6111,4.6132,4.6133,4.6128,4.6129,4.6124,4.6131,4.613,4.613,4.613,0,4.588,4.5901,4.5924,4.5953,4.5961,4.5972,4.5995,4.6009,4.6031,4.6041,4.6056,4.6069,4.6085,4.6088,4.6111,4.6106,4.6116,4.6125,4.6126,4.6129,4.6132,4.6133,4.6134,4.6135,4.6132,4.6132,4.6132,0,4.5866,4.5898,4.5918,4.5929,4.5963,4.5971,4.5985,4.6007,4.602,4.6039,4.6048,4.6068,4.6079,4.6094,4.6112,4.6112,4.6134,4.6138,4.6143,4.6143,4.6147,4.6147,4.6151,4.6152,4.6152,4.6152,4.6152,0,4.5864,4.5878,4.5912,4.5923,4.594,4.5963,4.5978,4.5994,4.6014,4.6029,4.6045,4.6058,4.6081,4.6097,4.6111,4.613,4.6134,4.6142,4.6146,4.6142,4.6141,4.6149,4.6149,4.6152,4.6152,4.6152,4.6152,0,4.585,4.5874,4.5896,4.5928,4.5937,4.5947,4.5975,4.5987,4.6003,4.6022,4.6028,4.6053,4.6073,4.6093,4.6119,4.6129,4.6147,4.6151,4.614,4.6143,4.6148,4.6148,4.6158,4.6161,4.6159,4.6158,4.6158,0,4.5848,4.586,4.5895,4.5907,4.5922,4.5941,4.5956,4.5978,4.5992,4.602,4.6029,4.6051,4.607,4.6101,4.6121,4.6142,4.6148,4.615,4.6151,4.6147,4.615,4.6149,4.6151,4.615,4.6149,4.6149,4.6149,0,4.5843,4.5855,4.5876,4.5901,4.5918,4.5939,4.596,4.5968,4.5996,4.601,4.6033,4.6048,4.6077,4.6099,4.6122,4.6136,4.6148,4.6149,4.6152,4.6148,4.6142,4.6147,4.614,4.6149,4.6149,4.6149,4.6149,4.6149,4.5836,4.5849,4.5876,4.5899,4.5918,4.5938,4.5953,4.5972,4.5992,4.6019,4.6031,4.6054,4.6078,4.6111,4.6125,4.6143,4.6146,4.6149,4.615,4.6151,4.6151,4.6139,4.6147,4.6147,4.6147,4.6147,4.6147,0,4.5833,4.5853,4.5874,4.5905,4.5924,4.5935,4.5959,4.5974,4.5995,4.6017,4.6036,4.6063,4.6085,4.6108,4.6132,4.6142,4.6148,4.6147,4.6147,4.6151,4.6146,4.6142,4.6142,4.6142,4.6142,4.6142,4.6142,4.6142,4.5834,4.5857,4.5872,4.5905,4.5924,4.5949,4.5962,4.5981,4.5999,4.6029,4.6049,4.6065,4.6087,4.6113,4.6134,4.6141,4.6149,4.6147,4.6155,4.615,4.6151,4.6151,4.6148,4.6149,4.6149,4.6158,4.6158,4.6158]}]]